TimeCDT,TemperatureF,Dew PointF,Humidity,Sea Level PressureIn,VisibilityMPH,Wind Direction,Wind SpeedMPH,Gust SpeedMPH,PrecipitationIn,Events,Conditions,WindDirDegrees,DateUTC
12:56 AM,28.0,19.0,69,30.03,10.0,NW,4.6,-,N/A,,Clear,310,2012-10-31 05:56:00
1:56 AM,27.0,19.9,75,30.03,10.0,NW,5.8,-,N/A,,Clear,320,2012-10-31 06:56:00
2:56 AM,26.1,19.0,75,30.02,10.0,NW,3.5,-,N/A,,Clear,320,2012-10-31 07:56:00
3:56 AM,26.1,19.0,75,30.02,10.0,NW,6.9,-,N/A,,Clear,310,2012-10-31 08:56:00
4:56 AM,24.1,19.0,81,30.02,10.0,WNW,5.8,-,N/A,,Clear,290,2012-10-31 09:56:00
5:56 AM,24.1,19.0,81,30.02,10.0,WNW,3.5,-,N/A,,Clear,290,2012-10-31 10:56:00
6:56 AM,19.9,17.1,89,30.02,10.0,WSW,4.6,-,N/A,,Clear,240,2012-10-31 11:56:00
7:56 AM,21.0,17.1,85,30.02,10.0,West,5.8,-,N/A,,Clear,260,2012-10-31 12:56:00
8:56 AM,26.1,21.0,81,30.03,10.0,West,4.6,-,N/A,,Clear,260,2012-10-31 13:56:00
9:56 AM,30.9,23.0,72,30.02,10.0,WNW,5.8,-,N/A,,Clear,300,2012-10-31 14:56:00
10:56 AM,37.0,23.0,57,30.01,10.0,WNW,8.1,-,N/A,,Clear,300,2012-10-31 15:56:00
11:56 AM,39.9,19.9,45,29.99,10.0,NW,9.2,-,N/A,,Clear,320,2012-10-31 16:56:00
12:56 PM,44.1,17.1,34,29.97,10.0,NW,8.1,-,N/A,,Clear,310,2012-10-31 17:56:00
1:56 PM,48.9,9.0,20,29.94,10.0,NNW,11.5,-,N/A,,Clear,340,2012-10-31 18:56:00
2:56 PM,50.0,7.0,18,29.93,10.0,NNW,12.7,-,N/A,,Clear,330,2012-10-31 19:56:00
3:56 PM,50.0,1.9,14,29.92,10.0,NNW,10.4,-,N/A,,Clear,330,2012-10-31 20:56:00
4:56 PM,48.9,3.0,15,29.93,10.0,NW,8.1,-,N/A,,Clear,320,2012-10-31 21:56:00
5:56 PM,45.0,5.0,19,29.94,10.0,NNW,6.9,-,N/A,,Clear,330,2012-10-31 22:56:00
6:56 PM,36.0,10.0,34,29.96,10.0,WNW,3.5,-,N/A,,Clear,290,2012-10-31 23:56:00
7:56 PM,33.1,10.9,40,29.95,10.0,WSW,3.5,-,N/A,,Clear,250,2012-11-01 00:56:00
8:56 PM,34.0,12.9,42,29.94,10.0,Calm,Calm,-,N/A,,Clear,0,2012-11-01 01:56:00
9:56 PM,35.1,15.1,44,29.94,10.0,Calm,Calm,-,N/A,,Overcast,0,2012-11-01 02:56:00
11:56 PM,36.0,16.0,44,29.92,10.0,WSW,5.8,-,N/A,,Overcast,250,2012-11-01 04:56:00